Zurück zum Katalog

STARLINK-32100

AktivKommunikationVLEO
NORAD 59686·PAYLOAD·🇺🇸 United States

Gestartet May 8, 2024 von Cape Canaveral Space Force Station

Loading…

Nächste Überflüge (nächste 24 Stunden)

TLE

AktuellSource: CelesTrak SupGP

Epoche: Sep 15, 2026, 03:16 UTC

1 59686C 24086E   26258.13659722 -.00038452  00000+0 -13928-2 0  2588
2 59686  43.0043  51.8957 0001525 268.8850  34.4224 15.27596128    11

Verfolge STARLINK-32100 in Echtzeit mit AllMySat

Download on the App Store